Vorticity
8 7 8 6 5 4 4 3 4 6 7 8 5 4 3 3 3 4 4 5 6 6 5 5 6 6 5 5 6 9 9 8 7 6 6 6 6 6 4 1 -1 -0 1 5
7 10 10 9 8 9 8 9 7 9 12 9 7 8 7 7 6 5 4 5 6 5 4 7 6 7 7 6 6 7 10 10 7 6 5 6 6 8 6 4 1 1 3 6
5 4 4 3 3 3 4 4 4 5 3 4 4 7 5 8 7 8 9 8 8 8 7 7 6 6 6 9 12 12 11 11 8 6 7 9 9 7 6 6 4 3 3 7
6 7 8 8 8 10 9 10 9 8 7 6 4 -5 10 4 4 3 8 8 5 5 5 5 4 5 6 7 5 8 9 13 7 7 8 9 8 6 7 5 4 3 4 11
13 9 4 6 8 2 9 6 5 4 5 5 9 6 1 10 11 11 8 6 10 12 11 9 10 9 8 8 12 11 13 11 13 15 10 7 5 7 6 6 2 3 8 13
18 16 19 17 15 10 7 9 7 7 7 2 10 8 21 5 5 6 8 9 15 21 15 13 12 13 12 10 11 13 10 11 13 11 9 8 7 7 7 2 4 5 12 9
3 4 6 7 8 14 14 13 6 4 11 7 7 8 4 4 2 5 6 7 9 10 13 13 16 15 10 12 10 12 10 11 13 11 9 8 7 4 4 4 5 12 11 8
4 -3 -6 7 5 5 7 9 16 3 11 9 9 -3 6 9 12 11 9 4 6 10 9 11 13 17 13 14 10 10 9 9 12 8 6 2 4 5 4 9 9 11 9 9
7 -9 2 4 -0 10 7 14 12 4 10 8 9 2 4 7 4 5 8 8 5 12 9 16 16 17 17 12 9 8 13 15 15 12 6 4 5 10 8 8 11 9 9 7
6 10 -6 6 1 4 7 3 13 16 7 14 -4 7 3 8 6 4 7 9 12 14 6 4 1 10 16 9 8 11 10 14 4 6 9 14 7 6 8 10 9 8 8 6
3 5 4 5 6 5 13 11 21 22 14 7 13 0 8 9 9 7 8 12 14 50 19 18 14 12 10 16 10 3 8 5 4 6 9 12 9 11 8 7 7 8 7 6
-1 1 -2 -3 5 12 18 16 18 25 24 10 15 14 17 19 7 1 -2 -0 3 7 36 10 7 15 12 7 11 12 11 7 4 10 11 7 3 3 6 12 9 8 8 7
-2 3 1 4 4 15 18 20 28 27 26 25 29 14 24 32 28 28 25 17 7 11 0 -16 2 1 7 7 2 8 4 9 5 5 9 7 6 7 8 9 7 9 8 7
0 5 9 10 16 27 30 35 32 24 30 14 -7 -15 -12 26 15 7 8 20 26 11 17 17 21 13 19 13 12 7 -1 -2 1 2 4 3 4 7 6 11 9 9 8 7
8 8 19 15 29 40 42 32 22 26 35 30 47 48 48 23 -16 -6 13 6 21 19 3 8 14 11 6 13 9 7 0 3 1 -0 3 3 5 9 9 9 9 8 9 6
9 15 29 38 42 28 19 25 37 16 17 25 34 36 17 28 65 9 -16 33 -7 -5 3 7 13 19 12 13 13 4 5 9 -3 6 3 3 6 10 13 5 6 7 7 5
21 38 41 25 32 17 18 28 15 6 9 5 5 17 37 30 26 46 51 7 -17 22 12 18 9 11 15 12 12 12 3 -5 6 7 4 5 8 8 7 5 6 9 6 7
40 57 28 17 16 13 20 11 5 13 18 4 7 5 10 1 28 26 24 41 44 3 17 20 18 13 -1 14 11 13 13 17 9 6 4 4 5 6 4 7 7 7 7 6
52 34 18 10 5 4 9 18 18 13 17 11 12 14 17 21 19 22 58 11 28 9 43 10 10 22 8 12 8 12 13 11 13 7 9 5 5 6 6 6 8 7 7 6
24 29 10 13 -3 10 15 14 15 9 18 13 10 10 15 -4 36 -5 -13 27 22 16 42 28 30 -26 38 3 -1 13 13 9 8 9 17 7 6 4 9 8 9 6 7 5
14 13 9 3 13 18 24 11 13 12 14 18 21 12 4 21 26 5 19 23 24 22 25 33 23 35 -30 37 17 3 12 6 10 6 9 8 10 7 6 10 7 6 6 5
16 15 6 11 14 12 8 12 14 10 16 20 9 20 23 9 7 36 11 15 4 -2 12 43 18 23 27 -7 41 4 12 17 8 3 0 2 2 6 20 8 6 8 5 5
17 13 13 11 9 9 4 2 18 15 16 19 13 21 19 18 10 13 3 28 12 34 -9 66 8 5 25 13 -25 47 9 8 4 10 12 10 17 12 12 14 9 5 5 3
17 3 14 6 7 -3 6 6 4 25 8 9 7 9 4 15 14 11 14 35 9 12 -12 40 47 22 18 48 14 11 18 4 -0 6 6 3 20 -2 7 9 5 7 1 7
-0 10 10 1 25 -2 3 14 15 12 9 -6 -6 5 15 16 19 13 21 22 4 -0 -7 38 51 19 24 34 25 26 27 18 -0 15 3 5 5 16 11 8 7 1 7 10
3 7 9 -7 7 11 19 -3 13 18 21 22 25 25 24 21 12 17 10 20 16 0 1 44 30 26 20 15 19 23 -1 15 3 12 14 6 15 15 12 8 -4 13 -2 17
Height
5860 5859 5865 5860 5857 5855 5855 5853 5853 5857 5857 5850 5847 5844 5849 5854 5848 5851 5853 5852 5852 5854 5853 5851 5850 5847 5847 5847 5847 5847 5847 5846 5844 5845 5845 5845 5845 5845 5845 5844 5843 5841 5839 5837
5856 5856 5855 5854 5851 5847 5846 5845 5845 5846 5847 5839 5836 5835 5838 5843 5845 5842 5840 5842 5844 5843 5842 5841 5839 5837 5838 5837 5836 5837 5837 5835 5834 5835 5835 5835 5835 5836 5835 5835 5834 5833 5831 5829
5849 5851 5850 5847 5844 5840 5839 5836 5835 5831 5832 5829 5820 5822 5827 5833 5833 5835 5833 5832 5832 5832 5830 5827 5825 5826 5825 5827 5826 5826 5825 5824 5823 5824 5824 5826 5826 5826 5825 5825 5825 5823 5822 5820
5844 5845 5842 5838 5837 5834 5829 5829 5824 5821 5816 5817 5819 5805 5814 5822 5823 5824 5825 5823 5820 5817 5816 5815 5814 5813 5812 5813 5812 5812 5812 5812 5811 5812 5815 5816 5815 5814 5815 5816 5815 5813 5812 5810
5841 5837 5833 5832 5830 5824 5821 5816 5814 5810 5804 5800 5804 5796 5806 5804 5809 5812 5813 5811 5809 5806 5803 5803 5800 5797 5798 5798 5800 5800 5800 5799 5801 5803 5804 5804 5804 5804 5805 5805 5804 5803 5801 5800
5832 5829 5826 5825 5822 5817 5811 5806 5800 5795 5790 5786 5795 5781 5795 5802 5791 5791 5793 5795 5796 5793 5791 5790 5787 5785 5786 5785 5786 5787 5786 5787 5789 5791 5792 5793 5793 5794 5795 5794 5794 5792 5790 5789
5824 5822 5818 5814 5810 5806 5800 5793 5784 5777 5773 5775 5772 5763 5779 5779 5776 5776 5776 5778 5784 5782 5780 5778 5775 5773 5772 5771 5772 5770 5772 5775 5777 5779 5780 5781 5782 5784 5784 5783 5782 5781 5780 5778
5811 5812 5809 5804 5798 5793 5788 5780 5770 5755 5756 5756 5752 5746 5764 5762 5764 5763 5762 5759 5764 5768 5766 5763 5759 5758 5759 5759 5758 5759 5761 5764 5766 5767 5769 5770 5771 5772 5772 5772 5771 5770 5769 5768
5795 5795 5789 5784 5778 5772 5769 5764 5757 5738 5740 5723 5734 5733 5739 5745 5746 5746 5745 5746 5744 5745 5747 5746 5744 5744 5744 5744 5746 5748 5749 5752 5754 5756 5757 5759 5760 5760 5760 5760 5760 5759 5758 5757
5781 5774 5775 5771 5767 5760 5749 5743 5729 5723 5711 5703 5706 5707 5714 5723 5723 5724 5725 5723 5724 5730 5729 5730 5726 5729 5730 5730 5733 5734 5736 5740 5742 5743 5745 5747 5748 5748 5748 5749 5749 5748 5747 5746
5765 5758 5762 5747 5743 5732 5724 5718 5712 5701 5693 5680 5674 5679 5695 5695 5697 5698 5701 5705 5704 5709 5712 5713 5716 5714 5715 5719 5720 5720 5725 5728 5730 5731 5733 5735 5736 5736 5737 5738 5737 5737 5737 5736
5750 5741 5739 5737 5728 5716 5701 5690 5681 5671 5669 5663 5649 5643 5674 5672 5673 5674 5675 5680 5689 5695 5695 5696 5699 5703 5704 5704 5708 5710 5714 5716 5718 5719 5721 5722 5723 5724 5725 5726 5726 5726 5726 5726
5723 5710 5699 5704 5701 5689 5674 5667 5658 5652 5641 5633 5623 5615 5649 5650 5646 5649 5645 5650 5661 5671 5680 5679 5683 5688 5691 5690 5690 5695 5699 5703 5705 5707 5709 5711 5712 5713 5714 5713 5715 5716 5715 5715
5700 5692 5677 5668 5660 5650 5638 5633 5630 5626 5611 5613 5607 5601 5618 5621 5621 5616 5617 5623 5635 5644 5648 5657 5665 5670 5675 5677 5679 5680 5682 5687 5691 5693 5696 5699 5700 5701 5701 5702 5704 5705 5704 5704
5677 5669 5654 5645 5628 5621 5613 5607 5606 5602 5595 5586 5583 5583 5591 5597 5598 5594 5595 5602 5609 5619 5626 5632 5643 5652 5657 5662 5666 5668 5670 5673 5678 5680 5683 5686 5687 5689 5690 5692 5693 5693 5694 5693
5655 5639 5622 5614 5607 5601 5589 5594 5593 5584 5578 5571 5568 5565 5565 5567 5568 5570 5569 5579 5587 5597 5604 5610 5621 5631 5638 5644 5649 5654 5658 5661 5664 5667 5670 5672 5673 5676 5679 5681 5682 5683 5683 5683
5636 5617 5601 5588 5592 5584 5581 5585 5578 5570 5570 5564 5559 5554 5553 5552 5553 5554 5556 5558 5564 5573 5578 5587 5600 5611 5619 5625 5631 5639 5642 5647 5651 5653 5655 5658 5661 5665 5668 5670 5671 5672 5672 5673
5606 5597 5585 5578 5579 5573 5577 5577 5568 5560 5559 5556 5551 5547 5544 5541 5541 5545 5539 5540 5544 5551 5560 5567 5579 5590 5600 5608 5613 5619 5625 5631 5636 5641 5641 5644 5649 5653 5656 5658 5660 5661 5662 5662
5592 5585 5579 5574 5570 5563 5570 5567 5558 5550 5552 5548 5540 5540 5537 5533 5533 5540 5529 5529 5530 5530 5536 5546 5558 5571 5581 5589 5594 5601 5608 5615 5622 5629 5631 5631 5636 5641 5643 5645 5648 5650 5651 5651
5586 5580 5575 5572 5562 5555 5562 5556 5548 5541 5538 5537 5530 5530 5528 5526 5524 5528 5523 5520 5519 5518 5518 5525 5536 5549 5561 5570 5577 5584 5594 5601 5608 5616 5619 5621 5626 5628 5630 5634 5637 5638 5640 5640
5576 5572 5567 5563 5555 5555 5551 5544 5539 5533 5530 5530 5523 5522 5520 5517 5514 5513 5513 5513 5509 5507 5503 5505 5517 5531 5543 5550 5559 5570 5577 5587 5596 5600 5605 5609 5615 5617 5620 5623 5625 5626 5628 5629
5567 5562 5559 5554 5549 5548 5542 5537 5532 5525 5523 5517 5516 5510 5507 5507 5504 5503 5504 5501 5500 5500 5498 5493 5499 5513 5526 5536 5543 5557 5564 5573 5579 5586 5591 5597 5601 5605 5609 5611 5613 5616 5617 5618
5560 5554 5551 5546 5544 5540 5534 5527 5524 5517 5513 5511 5505 5503 5497 5497 5495 5493 5492 5490 5491 5490 5488 5483 5487 5498 5507 5521 5531 5542 5551 5559 5566 5572 5579 5584 5590 5593 5596 5600 5603 5604 5606 5607
5552 5547 5542 5536 5542 5530 5527 5523 5515 5510 5506 5502 5499 5495 5490 5486 5484 5482 5483 5482 5479 5480 5479 5478 5477 5485 5492 5504 5515 5528 5537 5546 5554 5561 5568 5574 5578 5582 5586 5589 5592 5593 5594 5595
5548 5538 5533 5529 5528 5526 5520 5513 5507 5505 5499 5494 5491 5485 5481 5475 5474 5472 5471 5471 5471 5472 5471 5473 5470 5474 5480 5489 5501 5514 5523 5531 5540 5551 5557 5563 5567 5572 5575 5578 5580 5582 5583 5584
5534 5530 5525 5521 5517 5512 5511 5506 5498 5493 5490 5485 5478 5476 5472 5465 5462 5461 5461 5460 5460 5465 5463 5461 5463 5466 5473 5481 5492 5503 5512 5522 5531 5539 5546 5551 5556 5560 5564 5567 5569 5570 5572 5572